FENGYUN 1C DEB, 29880

Orbit data source: Space-Track

FENGYUN 1C DEB, 29880 is space debris in SSO originally from a launch on Mon, 10 May 1999 UTC launched from the Taiyaun Space Center, China (TSC). Fengyun 1C debris stems from the Chinese weather satellite Fengyun-1C, which was intentionally destroyed by a Chinese anti-satellite missile in 2007. This event dramatically increased the amount of space debris, with thousands of trackable fragments posing hazards to satellites and human spaceflight. The Fengyun 1C debris cloud has become a focal point in discussions about space sustainability and the need for international regulations to prevent the creation of new debris.

Loading next visibility...
Identifier
29880, 1999-025GA
Orbit
SSO
Country
Flag of CNCN / PRC
Related business
Manufacturer
Unknown
Mission
Spacecraft
Bus & Motor
Unknown
Mass
Unknown
Launch date (UTC)
1999-05-10 (27 years ago)
Launch vehicle
Unknown
Launch site
Taiyaun Space Center, China (TSC)
Object type
Payload
Rocket body
Debris
Shape & HBR
Unknown shape, 0.1 m
Radar Cross Section
Small (<0.1 m²)

Expand to show TLE details & history
Last TLE update: 23 hours ago

TLE from 23 hours ago
0 FENGYUN 1C DEB
1 29880U 99025GA  25353.27626852  .00001259  00000-0  78339-3 0  9998
2 29880  98.1953 271.0878 0232107  83.2262  65.9598 13.93932050956530
Epoch: 2025-12-19T06:37Z
TLE epoch observation values (Epoch: 2025-12-19T06:37:49.600Z)
Latitude
28.08485°
Longitude
-92.10445°
Altitude
852.673 km
Speed
7.462 km/s
True Right ascension
06h 21m 53s
True Declination
27° 56' 39"
Sunlit
Object was in full shadow at epoch
Visualization orbit readout
Latitude
Unknown
Longitude
Unknown
Altitude
Unknown
Speed
Unknown
Apparent Right ascension
Unknown
Apparent Declination
Unknown
Sunlit
N/A
Visualization observer readout
Local Sidereal Time
04:50:06
Azimuth
Unknown
Elevation
Unknown
Doppler factor
Unknown
Orbital elements
Apogee altitude
1,081.262 km
Perigee altitude
742.841 km
Semi-major axis
7,290.188 km
Eccentricity
0.02321
Inclination
98.1953°
RAAN
271.0878°
Arg. of periapsis
83.2262°
True anomaly
68.41713°
Mean anomaly
65.9598°
Eccentric anomaly
67.18563°
Mean motion
3.48686 °/min
Orbital period
103.24 mins
BSTAR
0.00078339
Loading maneuver chart data...
Computing Atmospheric mass density...

Documentation

Showing up to 5 results
|